FW1194 Weather Reports


Display with metric or nautical units.
time (UTC)temp
F
wind
direction
speed
MPH
gust
MPH
rain 1hr
in
rain 24hr
in
rain mn
in
humidity
%
barometer
mb
20260831110237 74 0.0 0.0 0.00 0.18 0.00 73 1012.9
20260831105237 74 0.0 0.0 0.00 0.18 0.00 73 1012.9
20260831104216 74 0.0 0.0 0.00 0.18 0.00 73 1012.8
20260831103216 74 0.0 0.0 0.00 0.18 0.00 73 1012.9
20260831102317 74 0.0 0.0 0.00 0.18 0.00 74 1012.8
20260831101217 73 0.0 0.0 0.00 0.18 0.00 74 1012.9
20260831100216 74 0.0 0.0 0.00 0.18 0.00 74 1012.9
20260831095216 74 0.0 0.0 0.00 0.18 0.00 75 1012.8
20260831094217 73 0.0 0.0 0.00 0.18 0.00 75 1012.7
20260831093216 73 0.0 0.0 0.00 0.18 0.00 75 1012.7
20260831092217 73 0.0 0.0 0.00 0.18 0.00 76 1012.8
20260831091217 73 0.0 0.0 0.00 0.18 0.00 76 1012.9
20260831090216 73 0.0 0.0 0.00 0.18 0.00 77 1012.9
20260831085257 73 0.0 0.0 0.00 0.18 0.00 77 1013.1
20260831084216 73 0.0 0.0 0.00 0.18 0.00 78 1013.0
20260831083216 73 0.0 0.0 0.00 0.18 0.00 78 1013.0
20260831082236 74 0.0 0.0 0.00 0.18 0.00 78 1013.0
20260831081236 74 0.0 0.0 0.00 0.18 0.00 78 1013.1
20260831080216 74 0.0 0.0 0.00 0.18 0.00 78 1013.1
20260831075216 74 0.0 0.0 0.00 0.18 0.00 77 1013.1
20260831074216 74 0.0 0.0 0.00 0.18 0.00 78 1013.1
20260831073216 75 0.0 0.0 0.00 0.18 0.00 77 1013.3
20260831072216 75 0.0 0.0 0.00 0.18 0.00 77 1013.5
20260831071216 75 0.0 0.0 0.00 0.18 0.00 77 1013.5
20260831070216 76 0.0 0.0 0.00 0.18 0.00 76 1013.4
20260831065217 76 0.0 0.0 0.00 0.18 0.00 75 1013.5
20260831064236 76 0.0 0.0 0.00 0.18 0.00 75 1013.5
20260831063216 76 0.0 0.0 0.00 0.18 0.00 75 1013.6
20260831062216 76 0.0 0.0 0.00 0.18 0.00 74 1013.6
20260831061216 77 0.0 0.0 0.00 0.18 0.00 74 1013.5
20260831060236 77 0.0 0.0 0.00 0.18 0.00 73 1013.6
20260831055241 77 0.0 0.0 0.00 0.18 0.00 74 1013.6
20260831054316 77 0.0 0.0 0.00 0.18 0.00 73 1013.5
20260831053216 77 0.0 0.0 0.00 0.18 0.00 72 1013.4
20260831052236 77 0.0 0.0 0.00 0.18 0.00 75 1013.4
20260831051216 76 0.0 0.0 0.00 0.18 0.00 78 1013.4
20260831050216 75 0.0 0.0 0.00 0.18 0.00 80 1013.4
20260831045217 75 0.0 0.0 0.00 0.18 0.18 82 1013.1
20260831044216 75 0.0 0.0 0.00 0.18 0.18 85 1013.0
20260831043217 74 0.0 0.0 0.00 0.18 0.18 88 1013.1
20260831042237 74 0.0 0.0 0.00 0.18 0.18 89 1013.0
20260831041217 74 0.0 0.0 0.00 0.18 0.18 90 1013.0
20260831040216 74 0.0 0.0 0.02 0.18 0.18 91 1013.3
20260831035217 74 0.0 0.0 0.02 0.18 0.18 91 1013.4
20260831034217 74 0.0 0.0 0.02 0.18 0.18 91 1013.6
20260831033216 74 0.0 0.0 0.02 0.18 0.18 91 1013.9
20260831032237 74 0.0 0.0 0.02 0.18 0.18 90 1014.2
20260831031217 74 0.0 0.0 0.02 0.18 0.18 90 1014.4
20260831030216 74 0.0 0.0 0.01 0.16 0.16 90 1014.8
20260831025217 74 0.0 0.0 0.01 0.16 0.16 90 1014.7
20260831024236 74 0.0 0.0 0.01 0.16 0.16 90 1014.7
20260831023217 74 0.0 0.0 0.01 0.16 0.16 90 1014.6
20260831022216 74 0.0 0.0 0.01 0.16 0.16 89 1014.3
20260831021216 74 0.0 0.0 0.01 0.16 0.16 89 1014.8
20260831020216 74 0.0 0.0 0.00 0.15 0.15 89 1014.5
20260831015216 74 0.0 0.0 0.00 0.15 0.15 88 1014.7
20260831014216 74 0.0 0.0 0.00 0.15 0.15 88 1014.5
20260831013216 74 0.0 0.0 0.00 0.15 0.15 88 1014.4
20260831012216 74 0.0 0.0 0.00 0.15 0.15 88 1014.3
20260831011216 74 0.0 0.0 0.00 0.15 0.15 88 1014.2
20260831010216 74 0.0 0.0 0.00 0.15 0.15 88 1014.0
20260831005216 74 0.0 0.0 0.00 0.15 0.15 87 1014.0
20260831004216 74 0.0 0.0 0.00 0.15 0.15 87 1013.9
20260831003236 74 0.0 0.0 0.00 0.15 0.15 87 1013.8
20260831002217 74 0.0 0.0 0.00 0.15 0.15 87 1013.9
20260831001236 74 0.0 0.0 0.00 0.15 0.15 87 1013.7
20260831000218 74 0.0 0.0 0.00 0.15 0.15 87 1014.2
20260830235216 74 0.0 0.0 0.01 0.15 0.15 87 1014.3
20260830234216 74 138 1.0 0.0 0.01 0.15 0.15 88 1014.1
20260830233236 74 90 1.0 2.0 0.01 0.15 0.15 88 1014.0
20260830232217 74 0 2.0 4.0 0.01 0.15 0.15 88 1014.4
20260830231236 74 180 2.0 6.0 0.02 0.15 0.15 88 1014.2
20260830230216 74 90 2.0 3.0 0.02 0.15 0.15 87 1014.3
20260830225216 74 180 2.0 3.0 0.01 0.14 0.14 87 1014.6
20260830224216 75 0 2.0 5.0 0.01 0.14 0.14 87 1015.0
20260830223216 75 0 4.0 5.0 0.01 0.14 0.14 86 1014.9
20260830222216 75 0 2.0 3.0 0.02 0.14 0.14 86 1014.8
20260830221216 75 180 3.0 5.0 0.01 0.13 0.13 86 1014.6
20260830220216 75 0.0 1.0 0.01 0.13 0.13 85 1014.7
20260830215216 75 158 1.0 2.0 0.01 0.13 0.13 84 1014.6
20260830214216 75 158 1.0 2.0 0.01 0.13 0.13 84 1014.7
20260830213216 75 158 2.0 4.0 0.01 0.13 0.13 83 1015.0
20260830212216 75 158 1.0 1.0 0.00 0.12 0.12 82 1014.8
20260830211216 76 0 3.0 5.0 0.00 0.12 0.12 81 1014.9
20260830210216 76 0 5.0 8.0 0.00 0.12 0.12 81 1015.0
20260830205216 76 0 2.0 5.0 0.00 0.12 0.12 80 1014.9
20260830204216 76 158 2.0 4.0 0.00 0.12 0.12 80 1014.9
20260830203216 77 0 5.0 7.0 0.00 0.12 0.12 80 1014.9
20260830202216 77 0 6.0 10.0 0.00 0.12 0.12 79 1014.9
20260830201216 78 0 5.0 8.0 0.01 0.12 0.12 78 1014.8
20260830200216 78 248 4.0 8.0 0.02 0.12 0.12 79 1014.6
20260830195216 77 0 8.0 14.0 0.02 0.12 0.12 81 1014.7
20260830194216 77 0 4.0 6.0 0.02 0.12 0.12 80 1014.5
20260830193216 77 0 3.0 6.0 0.02 0.12 0.12 79 1014.7
20260830192216 78 0 4.0 6.0 0.02 0.12 0.12 77 1014.6
20260830191256 80 0 4.0 9.0 0.01 0.11 0.11 72 1014.6
20260830190216 81 0 5.0 8.0 0.00 0.10 0.10 68 1015.1
20260830185316 82 0 8.0 12.0 0.00 0.10 0.10 66 1015.2
20260830184216 82 0 9.0 16.0 0.00 0.10 0.10 63 1014.8
20260830183216 82 0 8.0 12.0 0.00 0.10 0.10 63 1014.2
20260830182216 83 225 5.0 9.0 0.00 0.10 0.10 62 1014.0
20260830181216 83 203 8.0 16.0 0.00 0.10 0.10 61 1013.6
20260830180215 84 203 12.0 17.0 0.00 0.10 0.10 60 1013.7
20260830175216 83 225 9.0 13.0 0.00 0.10 0.10 61 1013.6
20260830174216 82 203 12.0 16.0 0.00 0.10 0.10 63 1013.8
20260830173216 82 203 10.0 16.0 0.00 0.10 0.10 64 1013.8
20260830172216 81 203 8.0 10.0 0.00 0.10 0.10 65 1014.0
20260830171215 80 0 13.0 19.0 0.00 0.10 0.10 65 1014.2
20260830170216 80 0 11.0 16.0 0.00 0.10 0.10 65 1014.4
20260830165215 80 0 12.0 16.0 0.00 0.10 0.10 67 1014.2
20260830164216 79 0 14.0 21.0 0.00 0.10 0.10 67 1014.2
20260830163235 79 0 11.0 14.0 0.00 0.10 0.10 67 1014.3
20260830162216 79 0 13.0 22.0 0.00 0.10 0.10 66 1014.3
20260830161215 79 0 11.0 19.0 0.00 0.10 0.10 67 1014.0
20260830160237 79 0 14.0 21.0 0.00 0.10 0.10 68 1014.1
20260830155217 78 0.0 0.0 0.00 0.10 0.10 70 1014.1
20260830154217 78 0.0 0.0 0.00 0.10 0.10 72 1014.2
20260830153217 77 0.0 0.0 0.00 0.10 0.10 73 1014.1
20260830152217 77 0.0 0.0 0.00 0.10 0.10 75 1014.1
20260830151217 76 0.0 0.0 0.00 0.10 0.10 78 1013.9
20260830150217 74 0.0 0.0 0.00 0.10 0.10 80 1013.8
20260830145217 73 0.0 0.0 0.00 0.10 0.10 83 1013.8
20260830144217 71 0.0 0.0 0.00 0.10 0.10 86 1013.9
20260830143216 71 0.0 0.0 0.00 0.10 0.10 87 1014.2
20260830142217 70 0.0 0.0 0.00 0.10 0.10 89 1014.2
20260830141217 69 0.0 0.0 0.00 0.10 0.10 89 1014.3
20260830140238 69 0.0 0.0 0.00 0.10 0.10 89 1014.1
20260830135217 68 0.0 0.0 0.02 0.10 0.10 90 1014.1
20260830134217 68 0.0 0.0 0.05 0.10 0.10 90 1014.2
20260830133217 68 0.0 0.0 0.06 0.10 0.10 89 1014.4
20260830132217 68 0.0 0.0 0.07 0.10 0.10 89 1014.7
20260830131217 68 0.0 0.0 0.08 0.10 0.10 89 1014.9
20260830130237 68 0.0 0.0 0.09 0.10 0.10 89 1014.8
20260830125217 68 0.0 0.0 0.08 0.08 0.08 88 1015.2
20260830124217 68 0.0 0.0 0.05 0.05 0.05 87 1015.6
20260830123237 68 0.0 0.0 0.04 0.04 0.04 87 1015.4
20260830122217 68 0.0 0.0 0.03 0.03 0.03 86 1015.5
20260830121217 69 0.0 0.0 0.02 0.02 0.02 85 1015.6
20260830120217 69 0.0 0.0 0.01 0.01 0.01 83 1015.4
20260830115217 70 0.0 0.0 0.00 0.00 0.00 82 1015.2
20260830114217 70 0.0 0.0 0.00 0.00 0.00 80 1015.1
20260830113217 71 0.0 0.0 0.00 0.00 0.00 78 1014.9
20260830112217 71 0.0 0.0 0.00 0.00 0.00 76 1014.8
20260830111217 71 0.0 0.0 0.00 0.00 0.00 75 1014.6